Wind_Speed
35 34 34 35 35 34 32 31 31 31 32 32 32 31 31 30 29 28 28 28 28 28 29 30 33 37 41 42 42 42 42 42 42 42 43 44 44 45 44 44 45 46 48 49 49 49 49 48 48 48 49 53 56 58 56 54 53 55 57 57 57 57 57 55 53 51 49 48 48 47 44 41 40 39
37 36 36 36 36 35 33 32 31 31 31 32 32 33 33 32 32 31 30 29 29 30 30 30 31 34 38 41 44 45 45 44 44 44 44 45 46 46 46 46 46 46 48 50 51 51 50 49 49 48 48 49 53 57 57 55 53 54 56 58 59 59 60 58 55 53 52 51 50 49 48 46 45 44
38 38 38 37 37 36 35 34 33 32 31 31 31 33 34 34 34 33 33 32 32 32 32 32 32 33 35 38 41 45 47 48 47 47 47 46 46 47 48 48 48 47 47 49 51 52 53 52 51 50 49 48 50 54 57 56 55 54 55 57 59 60 62 61 58 56 54 53 53 52 52 52 51 50
40 40 40 39 39 38 37 36 35 35 34 33 32 32 34 34 34 34 34 34 34 34 34 34 34 34 35 36 38 41 45 48 50 50 50 49 49 48 48 49 50 50 49 49 50 51 53 54 54 53 52 50 49 52 55 58 58 57 57 57 58 60 62 62 61 59 57 55 55 55 55 56 56 54
42 42 41 41 41 41 40 40 39 39 38 37 36 35 35 35 34 34 35 35 36 37 37 37 37 36 36 37 38 39 42 45 49 52 53 52 52 51 50 50 51 51 52 51 50 51 52 53 54 54 54 53 51 51 53 56 58 60 60 60 60 60 61 62 62 61 60 58 56 56 57 58 58 56
44 44 43 43 43 43 43 44 44 44 43 42 41 41 40 40 40 40 40 40 40 40 39 40 40 40 39 39 40 40 41 43 46 49 52 54 55 54 53 53 52 52 53 53 53 52 52 53 53 54 54 55 55 54 54 55 57 59 60 62 62 62 62 63 63 63 62 61 59 59 60 60 59 58
47 47 47 46 46 46 46 47 47 47 47 48 47 47 46 46 46 46 46 45 45 44 43 43 43 43 43 43 43 43 43 44 45 46 49 52 55 57 57 56 55 54 54 55 55 55 55 54 54 55 55 55 56 57 57 57 58 59 60 61 62 63 63 63 64 64 64 63 62 62 62 61 61 61
50 50 50 50 49 49 49 49 49 49 49 50 50 50 50 49 48 47 46 46 45 45 45 45 45 45 45 46 47 47 46 46 46 47 48 50 52 55 57 58 58 58 57 57 57 57 57 57 56 56 56 57 57 58 59 60 60 61 62 62 63 63 64 64 64 65 65 65 65 64 63 63 62 62
52 52 51 51 51 50 50 49 49 49 49 49 50 50 50 50 48 47 47 46 45 45 45 46 46 47 47 48 49 50 50 50 49 49 49 50 51 53 55 57 58 59 60 60 60 60 60 60 59 59 58 58 59 59 60 61 61 62 62 63 63 64 64 65 65 65 66 67 67 66 66 65 64 64
52 52 52 51 50 49 48 47 46 46 46 46 46 46 47 46 46 46 46 46 46 46 46 47 47 48 49 49 50 51 52 53 53 53 52 52 52 53 54 55 57 59 61 62 63 63 63 63 63 62 62 61 61 60 61 62 62 63 63 64 64 64 65 65 66 66 67 67 67 68 67 67 66 66
52 52 52 50 48 47 46 44 43 43 44 43 42 41 41 41 41 41 41 41 42 43 44 46 47 49 50 51 51 52 53 54 56 57 57 56 56 56 56 56 57 58 60 62 63 65 65 66 66 66 65 65 64 63 63 63 64 65 65 65 66 66 66 66 66 67 67 68 68 68 68 68 67 67
53 52 52 50 47 45 43 41 41 42 42 40 38 37 36 36 37 38 39 40 41 41 42 43 45 47 49 51 53 54 55 56 57 58 59 60 60 60 59 59 59 59 60 61 62 63 65 66 68 68 69 69 69 68 67 67 67 67 67 68 68 68 68 68 68 68 68 69 69 69 69 69 69 68
52 50 50 49 46 43 41 40 40 42 40 36 34 35 37 39 41 42 43 44 43 43 43 44 45 46 48 50 52 55 57 58 60 60 61 61 62 63 64 63 63 63 62 63 64 63 63 64 66 68 69 71 72 72 71 71 70 70 70 70 71 71 71 71 71 71 71 71 71 71 71 71 70 70
50 48 46 46 44 42 41 41 41 41 40 39 39 42 45 46 46 46 45 44 44 44 45 45 46 47 47 49 51 54 56 58 60 61 63 63 64 65 66 66 66 66 66 67 67 67 65 65 65 66 67 69 71 72 73 74 74 74 73 73 74 74 74 74 74 74 74 74 74 74 74 73 73 72
50 48 45 43 43 43 43 44 43 43 44 46 49 52 51 50 49 47 46 45 45 46 47 48 49 49 49 50 51 53 55 57 58 60 62 64 66 67 67 68 68 68 68 69 70 71 70 69 68 68 68 68 69 70 72 73 75 76 77 77 77 77 77 77 78 77 77 77 77 77 77 77 77 76
52 51 50 47 46 46 46 46 47 47 48 50 52 52 51 50 49 49 49 50 51 52 53 54 53 52 52 51 51 52 53 55 57 58 59 61 64 66 68 70 71 71 70 70 71 73 73 72 72 72 72 71 71 71 71 72 73 74 76 78 79 80 81 81 81 80 80 80 80 80 80 79 79 79
56 56 57 55 54 52 51 51 51 52 52 52 52 52 52 52 53 54 55 57 59 60 60 60 59 57 55 54 54 53 54 54 56 57 58 60 61 63 66 69 72 73 74 73 73 74 75 74 73 75 75 75 75 75 75 74 73 73 74 76 78 80 81 82 83 83 83 83 83 83 83 82 82 82
61 61 61 61 60 60 59 58 58 57 57 57 56 56 57 58 59 61 62 64 66 66 66 65 64 62 60 58 57 57 56 56 56 57 58 60 61 62 64 67 70 72 74 76 76 77 79 78 76 76 77 78 77 78 79 78 77 76 77 77 78 79 80 81 83 84 85 85 86 86 85 85 85 85
67 66 65 64 64 64 65 65 64 64 63 62 62 62 62 64 65 66 68 69 70 70 69 68 67 65 64 63 61 60 59 58 57 57 58 60 61 63 65 68 70 72 74 76 77 77 79 81 80 79 80 81 80 81 81 81 80 79 80 81 81 81 81 81 82 83 83 84 85 86 87 87 88 88
70 70 69 69 69 68 69 69 69 69 68 68 68 68 68 69 69 70 70 71 72 72 71 70 69 68 66 65 64 63 62 61 61 61 61 62 63 63 65 68 71 73 75 77 78 77 78 80 81 82 84 85 85 84 84 84 82 82 83 83 84 84 84 84 84 84 84 84 84 85 86 87 88 88
73 73 73 73 73 73 73 73 73 73 73 73 72 72 73 72 72 73 73 73 74 74 74 73 72 71 69 68 68 67 67 67 67 67 68 68 68 67 67 69 71 73 76 79 81 79 78 79 81 82 84 86 87 88 88 87 86 85 85 86 86 87 87 87 87 87 87 86 86 85 86 86 86 87
75 76 76 76 76 76 77 77 77 78 78 77 77 77 77 76 77 77 78 78 78 78 78 76 75 73 72 72 72 72 73 73 73 73 73 73 72 71 71 71 72 73 76 79 82 82 81 81 82 83 84 85 86 88 89 89 89 89 88 88 89 90 90 90 90 89 89 89 89 88 88 88 88 88
79 79 80 80 80 80 81 82 82 83 83 83 82 82 81 81 81 81 82 81 81 80 79 77 76 75 75 75 76 77 77 77 77 76 75 74 73 72 72 72 73 74 76 78 81 82 83 84 85 85 84 84 85 87 88 89 90 90 89 90 90 91 92 92 92 92 91 91 91 91 91 91 91 91
81 82 82 83 84 85 86 87 87 87 86 86 85 85 84 83 83 83 83 82 82 80 79 78 78 78 78 79 80 80 80 80 79 77 76 74 73 72 72 72 72 73 75 78 80 81 82 84 86 86 86 85 85 87 89 89 89 90 90 90 90 91 92 93 93 93 93 93 93 93 93 93 93 93
80 80 81 82 84 85 86 86 86 85 85 84 84 84 84 84 83 83 82 82 81 80 80 80 80 80 81 82 82 83 82 81 79 78 76 75 73 71 70 70 70 71 73 75 77 79 80 82 84 86 87 86 86 87 89 90 90 90 90 91 91 91 92 92 93 93 93 94 94 94 94 94 94 95
79 79 79 79 79 80 81 81 81 81 81 81 82 83 83 83 83 82 81 81 81 81 81 81 82 83 83 84 84 84 83 81 79 77 76 74 72 70 69 67 67 68 69 71 73 74 76 79 81 83 84 85 85 86 87 89 90 91 91 91 92 92 93 93 93 93 93 94 95 95 96 96 96 96
78 78 77 77 76 76 77 77 78 78 79 80 81 82 82 82 81 81 81 81 81 81 82 83 84 85 85 85 85 83 81 79 77 75 73 71 69 68 67 66 65 65 66 67 68 69 71 72 75 77 79 81 83 84 85 86 88 90 90 91 92 93 93 92 92 92 93 93 94 94 95 96 96 97
77 77 76 76 76 76 76 77 78 78 79 80 81 81 81 81 80 80 81 81 82 83 84 85 86 86 86 84 82 80 79 77 75 72 70 68 66 65 64 63 63 62 62 61 62 63 64 65 67 69 71 74 76 79 81 83 85 87 88 89 90 91 92 92 91 91 92 92 92 92 93 94 95 95
76 76 76 76 77 77 77 78 79 79 79 80 80 80 80 80 81 81 82 83 84 85 86 86 86 85 84 82 80 78 76 75 72 70 67 66 64 63 61 61 60 59 57 56 55 56 57 59 61 63 65 67 69 72 75 78 80 83 86 87 88 90 90 90 90 89 90 91 91 91 91 92 92 93
77 77 77 77 78 78 78 79 79 80 81 81 81 81 81 82 82 83 84 85 86 86 86 86 85 83 81 80 77 75 73 71 69 67 65 64 63 62 60 59 58 57 55 52 51 51 52 55 57 58 60 62 64 67 70 72 75 78 81 83 85 87 88 88 88 87 88 89 90 90 90 90 91 92
79 79 79 79 80 80 80 81 81 82 83 83 83 83 83 84 85 85 86 86 86 86 85 84 83 81 78 76 73 71 69 67 66 65 64 62 61 60 58 58 57 56 54 51 49 49 49 51 52 54 56 58 60 63 65 67 70 72 75 77 79 81 84 85 85 85 85 85 86 88 88 89 89 90
82 82 82 83 83 83 83 83 84 84 85 85 85 85 85 85 86 86 86 86 86 85 84 82 80 77 74 71 69 66 65 64 64 64 61 59 57 56 56 56 55 54 53 50 47 46 46 47 48 49 51 53 55 57 60 62 64 66 68 70 72 74 77 79 80 81 81 82 83 84 85 86 86 86
84 84 85 85 85 85 86 86 86 86 86 85 85 85 86 86 86 86 86 85 84 83 82 79 76 73 70 67 64 63 63 63 63 61 58 56 54 54 53 53 51 50 50 48 46 44 44 44 45 46 48 49 51 53 54 57 58 60 61 64 66 68 70 72 74 75 77 78 79 80 81 81 82 82
86 86 86 87 87 87 87 87 87 87 86 86 86 86 86 86 86 86 85 84 83 81 79 75 72 68 65 62 61 61 62 62 60 57 55 53 52 51 50 49 47 46 46 45 43 42 42 42 43 44 45 46 47 49 49 51 54 55 57 58 60 62 64 65 67 69 71 72 73 74 75 75 75 76
86 86 87 87 88 88 88 88 88 87 87 87 86 86 86 86 85 84 83 82 80 77 74 70 66 62 59 58 59 60 60 58 56 53 52 51 50 49 47 46 44 43 42 42 41 41 40 40 40 41 42 42 44 44 44 45 48 51 53 53 55 56 58 59 60 62 63 64 65 67 68 69 69 69
84 85 85 86 87 87 87 87 87 86 86 86 85 85 84 83 82 81 80 77 75 71 67 63 59 56 55 55 57 58 56 53 51 50 50 49 48 46 45 43 42 41 40 40 39 39 39 38 38 39 40 40 40 40 40 40 43 46 49 50 51 52 53 54 55 56 57 58 59 60 61 62 62 62
81 82 83 84 85 85 85 85 84 84 83 83 82 81 80 79 78 76 74 71 68 64 60 57 54 52 52 54 55 53 50 48 48 48 47 47 46 45 43 42 41 39 38 38 38 38 38 37 37 38 39 39 38 38 37 37 39 43 47 49 48 48 49 50 51 52 53 54 54 55 56 56 56 56
79 80 81 81 81 81 81 80 79 79 79 78 77 76 75 73 72 70 67 64 61 58 54 52 50 50 51 52 51 49 47 46 45 45 45 44 44 43 42 41 40 39 37 37 37 37 37 36 35 36 36 37 37 36 35 34 36 41 46 48 45 44 45 47 48 49 50 51 51 52 52 52 52 52
76 77 77 77 76 76 75 75 74 73 72 72 71 70 69 67 65 63 60 57 54 52 50 48 47 48 48 48 46 45 45 44 43 43 42 42 41 41 40 39 38 37 36 35 36 35 35 34 33 33 34 34 34 34 33 32 33 38 42 43 41 41 42 43 44 45 46 47 47 48 48 48 48 49
72 72 71 71 70 70 69 68 67 66 66 65 64 63 62 60 59 56 54 52 49 47 46 46 46 45 45 43 43 43 43 42 41 40 40 39 39 38 38 37 36 35 34 33 33 33 32 32 31 31 31 31 31 31 30 29 31 34 37 38 37 37 38 38 39 40 41 42 42 42 42 42 43 43
65 64 64 64 63 62 62 61 60 60 59 59 58 57 56 54 53 51 49 48 46 44 44 44 43 42 41 40 40 40 40 39 39 38 37 36 35 35 35 34 34 33 32 31 31 30 29 28 28 28 29 29 28 28 27 27 28 30 31 32 33 33 33 34 35 36 36 36 36 36 36 37 37 38
58 58 58 58 57 56 56 56 55 55 55 54 53 52 51 50 49 47 46 44 43 42 42 42 40 39 38 37 37 37 37 36 36 34 33 32 31 31 31 31 31 31 30 29 29 28 26 25 26 26 27 27 27 26 25 25 26 27 27 28 29 29 30 31 32 33 33 32 32 32 32 33 33 33
54 54 54 53 52 52 52 52 52 51 51 50 49 48 47 47 46 44 43 42 40 40 40 39 38 36 35 34 35 35 34 33 31 30 29 29 28 27 27 28 28 29 28 28 27 26 24 23 23 24 25 26 26 26 25 25 25 25 25 26 27 27 27 29 30 30 30 29 28 28 29 29 30 30
51 50 49 48 48 48 48 48 48 47 47 46 45 45 44 44 43 42 41 39 38 38 38 37 35 33 33 32 32 32 31 29 27 26 25 25 25 25 25 25 26 27 27 26 25 24 23 22 22 22 23 23 23 23 23 23 23 23 23 24 24 24 25 27 28 27 26 25 24 25 25 25 25 26
47 46 45 45 45 45 45 44 44 44 44 43 42 42 41 41 41 40 38 37 36 36 36 35 32 31 30 30 29 29 27 25 23 23 22 22 23 24 24 24 24 25 25 24 23 22 22 21 21 21 21 21 21 20 20 20 20 20 20 21 21 22 23 24 25 24 23 22 21 22 22 21 21 21
Wind_Direction
264 265 265 267 269 271 272 272 268 265 263 263 262 261 261 260 259 259 261 262 263 262 260 257 254 251 249 247 247 247 249 249 248 246 245 244 244 244 244 244 244 243 243 242 241 240 240 240 241 242 243 243 243 242 242 243 243 243 242 243 245 248 250 249 249 251 254 256 256 255 254 254 256 259
265 266 267 267 269 270 270 269 268 267 266 266 264 262 261 261 260 259 259 260 261 262 262 260 258 255 252 250 248 247 248 250 251 250 248 247 246 245 245 244 244 244 244 243 242 242 242 242 243 244 245 244 242 241 241 242 242 242 242 241 242 244 247 248 248 249 251 253 253 253 252 253 255 257
266 267 268 268 269 270 270 268 266 267 269 269 267 264 262 261 260 260 260 260 260 260 261 261 260 259 257 254 252 250 249 249 250 251 251 250 249 247 246 245 245 245 244 243 243 243 243 243 244 245 246 245 243 240 240 240 241 241 242 242 242 242 244 245 246 248 250 251 250 250 251 253 254 254
267 267 268 268 269 269 269 267 265 265 266 268 267 265 263 261 260 260 260 261 261 260 259 259 259 259 260 259 257 254 252 250 250 250 251 251 251 249 247 246 245 245 245 244 243 242 243 243 244 245 245 246 245 243 241 240 241 242 242 242 242 242 243 244 245 247 249 249 249 250 250 251 253 255
268 268 268 269 269 269 269 268 266 265 264 265 264 263 263 262 261 262 263 264 264 263 261 259 257 256 256 257 258 257 256 254 252 251 251 251 252 251 250 248 246 246 245 245 244 243 243 243 243 244 244 244 245 245 244 243 243 243 244 244 243 243 244 244 246 248 249 250 250 250 251 252 253 255
268 268 269 269 268 269 269 268 267 266 265 264 262 261 260 261 262 264 266 266 266 264 263 261 259 257 255 253 253 254 255 255 254 253 252 252 253 253 253 251 249 247 246 246 245 245 244 244 244 244 244 243 244 244 245 246 246 246 246 246 246 246 246 246 247 249 250 250 250 251 252 252 253 254
268 268 268 267 267 267 267 267 267 265 264 263 262 261 260 261 262 264 265 267 267 266 264 262 261 259 256 254 252 251 252 252 253 253 253 252 252 253 254 254 253 251 249 248 246 246 245 245 245 245 245 244 244 244 244 245 247 247 248 248 248 248 248 248 248 249 250 250 250 250 251 251 252 252
269 269 269 269 269 268 268 267 266 264 263 262 261 261 261 261 262 264 265 266 267 266 265 264 262 261 259 256 254 252 251 250 250 251 252 252 251 251 252 253 254 254 253 251 249 248 247 246 246 246 246 246 246 245 244 244 245 246 247 248 249 249 250 250 250 250 250 250 250 250 250 251 251 252
271 272 272 272 271 271 270 269 268 266 265 263 262 260 260 260 261 263 263 264 264 263 262 262 262 261 260 258 256 254 252 251 250 249 250 250 250 251 250 251 251 252 253 253 252 251 249 248 247 247 247 247 247 247 246 246 245 245 246 247 248 249 250 250 251 251 251 251 251 251 250 251 252 252
273 274 274 274 274 274 273 272 270 268 266 264 262 260 260 260 260 261 262 262 262 261 261 260 260 259 259 259 257 255 254 253 252 250 249 248 248 249 250 250 251 251 251 251 252 252 251 251 250 249 249 249 248 248 248 247 247 246 246 246 246 247 248 250 251 251 252 252 252 252 251 251 251 252
275 276 276 275 275 275 275 274 272 269 266 263 261 260 260 259 258 258 259 260 261 262 261 261 260 259 259 259 258 258 256 255 254 252 251 250 249 248 248 248 250 251 251 251 251 251 251 252 252 251 251 251 250 249 249 249 249 248 248 247 247 247 247 248 249 250 251 252 252 252 252 252 251 251
275 276 276 276 275 274 274 274 272 269 265 260 257 257 256 256 256 258 260 262 264 264 264 264 263 261 260 259 259 258 258 257 256 254 253 252 251 250 249 248 248 248 249 250 251 251 251 252 252 252 252 252 252 251 250 250 250 250 249 249 249 249 249 249 249 250 250 250 251 251 252 252 252 252
273 274 274 275 274 272 272 273 270 266 261 253 250 253 255 256 259 262 264 265 266 266 267 267 267 265 264 263 261 259 258 257 256 256 255 254 253 252 251 250 249 249 249 249 249 250 250 251 252 252 252 252 253 253 252 251 251 250 250 250 250 250 250 250 250 251 251 251 251 251 251 252 251 252
270 270 271 270 269 268 270 271 268 264 257 252 255 262 265 263 263 264 265 265 267 270 271 271 270 269 268 267 265 263 260 258 257 256 256 255 255 254 254 252 251 250 250 251 250 249 248 249 250 251 252 252 252 252 252 252 252 252 251 251 250 250 250 251 251 251 251 252 252 252 252 252 252 252
270 271 270 268 266 267 270 270 269 266 262 261 265 270 271 268 267 269 271 272 274 276 277 277 277 275 273 270 267 265 263 262 260 259 257 256 256 255 255 255 254 252 251 251 252 251 249 248 249 249 250 251 252 252 252 252 252 253 252 252 252 251 251 251 251 251 251 251 252 252 252 253 253 254
277 277 277 274 271 270 272 273 273 272 270 270 271 273 273 273 274 278 280 282 283 283 283 283 282 281 279 275 272 269 267 265 263 262 261 259 258 257 257 257 256 255 253 253 254 254 252 250 250 250 249 249 250 250 251 251 252 252 253 253 253 253 252 252 252 252 252 251 251 252 252 252 253 253
281 282 282 282 281 280 279 278 277 277 277 277 277 279 280 282 283 285 286 287 288 288 287 286 286 284 282 279 277 275 272 270 268 266 265 263 261 261 260 259 258 257 255 254 255 256 255 253 252 252 251 250 250 250 250 249 250 251 252 253 253 253 253 253 253 253 253 252 252 252 252 252 252 253
281 282 282 283 284 284 284 283 283 282 282 283 283 284 284 285 286 287 288 288 288 288 288 287 287 286 284 282 281 279 276 273 271 270 269 268 266 265 264 262 261 259 257 256 255 256 257 255 253 253 253 252 251 251 250 250 249 249 250 251 252 253 253 253 253 253 253 253 253 253 253 253 253 253
280 280 281 281 282 282 283 283 284 284 283 283 283 283 283 284 285 286 286 286 286 286 286 286 286 285 284 284 283 282 280 277 275 273 271 271 270 269 268 266 265 263 260 258 256 256 257 257 255 254 254 254 252 252 251 251 250 249 249 250 250 251 252 252 253 253 254 254 254 254 254 254 254 254
277 278 279 280 280 281 281 281 282 282 282 282 282 282 282 282 283 283 283 283 283 284 284 285 285 284 284 284 284 284 284 283 281 279 277 275 272 270 269 268 267 266 264 261 258 255 256 257 256 255 254 254 254 253 252 252 251 251 250 250 250 250 250 251 252 252 253 253 253 254 254 254 255 255
273 275 276 277 278 279 279 280 280 280 280 281 281 281 281 282 282 283 283 284 284 284 285 285 285 285 285 286 287 287 287 286 285 284 283 281 278 275 272 270 268 266 265 263 260 257 255 255 256 255 255 255 255 254 254 253 252 252 251 251 251 251 250 250 251 251 252 252 253 253 253 254 254 254
271 272 274 275 276 277 278 278 279 280 280 280 281 281 282 282 283 283 284 284 285 285 285 285 284 285 285 286 287 288 288 288 287 286 285 283 281 279 276 272 269 267 265 263 262 260 257 256 255 254 254 255 255 255 255 254 253 253 252 252 252 251 251 251 250 250 251 251 252 252 253 253 254 254
268 269 270 272 273 273 274 275 277 278 278 279 280 280 281 281 282 282 283 283 283 284 284 284 284 284 285 286 287 288 288 288 287 286 285 284 282 279 277 274 271 269 267 264 262 260 259 257 256 255 254 254 254 255 255 255 255 254 253 253 252 252 251 251 250 250 250 251 251 252 253 253 254 254
266 267 268 268 269 270 272 273 274 275 276 277 278 279 280 280 281 282 282 282 283 283 284 284 284 285 286 287 287 288 289 289 289 288 286 285 282 280 277 274 271 269 267 265 262 260 258 258 257 257 256 254 254 254 255 255 255 255 255 254 253 253 252 252 251 250 250 251 251 251 252 253 253 254
267 268 268 268 269 270 271 272 273 274 275 277 277 278 279 280 281 282 282 283 283 284 284 284 285 286 287 287 288 289 290 290 290 289 288 286 284 281 278 275 272 269 267 264 262 261 259 258 257 257 257 256 255 254 255 255 255 255 255 255 254 254 253 253 252 251 251 251 251 251 251 252 252 253
269 269 269 269 270 271 271 272 273 274 275 276 277 278 279 280 281 282 282 283 283 283 284 285 285 286 287 288 289 290 290 290 290 289 288 286 284 281 279 276 273 270 268 265 263 261 260 259 258 257 258 258 257 256 256 256 256 256 255 255 255 255 254 253 253 253 252 252 251 251 252 252 252 253
269 270 270 271 271 272 272 273 274 275 276 277 277 278 279 280 280 281 281 282 282 283 284 285 285 286 288 289 289 290 291 291 290 289 288 286 283 281 279 277 274 272 269 267 265 263 261 260 260 259 259 258 258 258 258 257 257 257 257 256 256 256 256 255 254 254 254 254 253 253 253 253 253 253
268 269 270 271 272 272 273 274 274 275 276 276 277 278 278 279 280 280 281 282 282 283 284 285 286 287 288 289 290 291 292 292 291 289 287 285 283 281 279 277 275 273 271 270 268 267 265 264 263 262 261 259 259 258 258 258 258 258 258 258 258 257 257 257 256 256 256 255 255 254 254 254 254 254
268 269 270 271 272 272 273 274 274 275 275 276 276 277 278 279 280 280 281 282 282 283 284 285 286 287 289 290 292 293 293 292 291 289 287 285 283 281 280 278 277 276 275 273 271 270 269 267 265 263 262 260 259 257 257 256 256 256 257 257 257 258 258 258 257 257 256 256 256 256 255 255 255 255
268 269 270 270 271 272 272 273 273 274 274 275 276 277 278 279 279 280 281 282 282 284 285 286 287 289 290 292 293 293 293 291 289 287 285 284 282 282 282 281 281 280 278 276 274 271 269 267 266 264 262 260 259 257 256 255 255 255 255 255 255 256 257 258 258 257 257 256 256 256 256 255 255 254
268 268 268 269 269 270 271 271 272 273 273 274 275 276 277 278 279 280 281 282 283 284 286 287 288 290 291 292 293 293 291 289 286 284 283 282 283 284 285 284 283 282 280 278 275 272 269 267 266 264 263 262 260 259 258 257 256 255 255 255 256 256 257 258 259 259 259 258 258 258 257 257 256 255
267 267 268 268 269 269 270 271 271 272 273 275 276 277 278 279 280 281 282 283 284 285 287 288 290 291 292 293 293 291 288 286 283 283 283 284 285 285 284 283 282 282 281 279 277 275 273 270 268 266 264 263 262 260 259 258 258 257 257 257 257 257 257 258 259 260 260 260 259 259 259 259 259 258
265 266 267 268 269 270 270 271 272 273 274 276 277 278 279 280 281 282 283 284 285 286 288 289 290 292 293 292 291 288 285 283 283 284 286 287 287 285 283 282 282 281 281 280 279 277 275 272 270 268 265 264 262 261 261 260 259 259 258 258 258 258 258 258 259 259 260 260 260 260 260 260 260 260
264 265 266 268 269 270 271 272 273 274 275 276 278 278 279 280 281 282 283 284 285 287 288 289 291 291 291 290 288 285 283 283 285 287 288 287 286 284 283 283 283 282 281 281 279 277 274 272 270 268 266 264 263 262 262 262 263 261 260 260 260 259 259 259 259 259 260 260 261 261 262 262 262 262
263 264 265 266 267 269 270 271 272 274 275 276 277 278 279 280 281 282 283 284 285 286 288 289 290 290 289 287 285 283 283 285 287 288 287 285 284 284 284 284 283 282 281 280 279 277 275 273 271 269 267 266 264 263 263 263 264 264 263 263 262 262 261 261 260 260 261 261 261 262 262 263 263 263
262 262 264 265 266 267 268 269 271 272 273 274 275 277 278 279 280 281 282 283 284 286 287 288 288 287 286 284 282 282 284 286 287 286 285 284 284 284 284 283 283 282 281 280 279 278 276 275 273 271 269 267 265 264 263 263 263 264 264 263 262 262 262 262 262 263 263 262 262 262 263 264 264 264
262 263 263 264 264 266 267 268 270 271 272 273 275 276 277 278 279 280 281 283 284 285 286 286 286 285 284 282 282 283 285 286 284 284 284 284 284 284 284 284 284 283 283 281 280 278 277 275 273 272 271 270 268 267 265 264 264 264 264 262 261 262 263 264 264 264 264 264 264 265 265 265 266 266
263 263 263 264 265 266 267 268 270 271 272 273 274 275 276 277 278 279 281 282 283 284 284 284 284 283 281 281 283 284 285 283 283 283 283 283 284 285 285 285 285 284 283 282 280 279 278 276 275 273 272 272 271 269 267 266 265 264 264 264 264 264 264 264 264 265 265 266 267 267 267 268 268 268
263 264 264 265 266 267 268 269 270 271 272 273 273 274 275 276 277 278 280 281 282 282 283 283 282 280 280 281 283 284 283 282 282 283 283 284 284 285 284 284 284 283 282 281 280 280 279 279 277 276 274 273 272 271 268 266 264 263 264 266 267 266 265 265 265 265 266 267 267 268 268 269 269 269
263 264 265 265 266 267 268 269 269 270 271 271 272 273 274 275 276 277 279 280 280 281 281 281 279 279 280 281 282 282 282 282 282 282 283 284 284 284 283 283 282 282 281 280 280 280 280 281 280 279 278 276 275 273 270 267 264 263 265 267 268 268 267 267 266 266 267 267 267 268 269 269 268 269
263 263 264 265 266 267 267 268 269 269 269 270 271 272 273 274 275 276 278 279 280 280 279 278 278 278 279 280 280 280 281 281 282 282 283 283 282 282 282 282 282 282 282 281 281 281 282 283 283 282 281 279 277 275 272 269 267 265 266 268 268 269 269 268 268 267 267 268 269 269 269 269 269 269
262 263 263 264 265 266 267 267 267 268 268 269 270 271 272 273 274 276 277 278 279 279 277 277 277 278 279 279 279 279 280 280 281 282 282 281 280 280 281 282 283 283 283 284 285 285 286 286 285 283 281 280 279 278 275 272 270 269 268 268 269 269 270 269 269 269 270 270 270 270 270 270 270 269
261 262 263 264 265 266 266 266 266 267 267 268 269 270 271 273 274 275 276 277 277 277 276 277 278 279 279 279 279 279 279 280 280 281 280 280 280 280 280 281 283 284 285 286 287 288 288 286 284 281 280 279 278 278 276 273 271 271 270 270 270 270 269 269 270 271 272 272 272 271 270 270 270 270
261 262 263 264 264 264 265 265 265 266 266 267 268 269 270 272 273 274 275 275 276 276 276 277 278 279 280 279 278 278 279 279 279 279 278 279 279 280 280 282 284 286 287 288 289 289 289 287 284 281 280 279 278 277 275 273 270 269 268 268 268 268 268 269 270 272 273 274 274 273 272 272 272 272
262 263 263 263 263 263 264 264 264 264 265 265 267 268 269 270 271 272 273 274 275 275 276 277 278 279 279 278 277 277 277 278 277 276 276 276 278 280 282 284 286 287 288 290 291 291 291 290 288 286 284 283 282 280 278 275 272 269 266 265 266 266 266 268 271 273 275 276 277 276 275 275 275 274
Height
10591 10592 10593 10594 10594 10595 10595 10595 10595 10594 10594 10594 10594 10594 10594 10594 10595 10595 10594 10594 10594 10594 10595 10595 10595 10595 10596 10598 10599 10600 10601 10602 10603 10605 10606 10608 10609 10610 10612 10613 10614 10615 10615 10617 10618 10620 10621 10623 10625 10626 10628 10629 10631 10633 10635 10637 10639 10641 10642 10643 10645 10646 10648 10650 10652 10653 10654 10654 10655 10656 10658 10660 10660 10662
10586 10587 10588 10588 10589 10590 10590 10590 10590 10590 10590 10590 10590 10590 10590 10590 10590 10590 10590 10590 10590 10590 10590 10591 10591 10591 10591 10592 10593 10594 10595 10596 10597 10599 10600 10601 10603 10604 10606 10607 10608 10609 10610 10611 10613 10614 10616 10617 10619 10620 10622 10623 10624 10626 10628 10630 10632 10633 10635 10636 10638 10639 10641 10643 10644 10646 10647 10648 10649 10650 10652 10654 10655 10657
10581 10582 10583 10583 10584 10584 10585 10585 10585 10585 10585 10585 10585 10585 10585 10585 10585 10585 10585 10586 10586 10586 10586 10586 10587 10587 10587 10588 10588 10589 10590 10591 10592 10593 10594 10595 10596 10598 10600 10601 10602 10604 10605 10606 10607 10608 10610 10611 10613 10614 10616 10617 10618 10619 10621 10623 10625 10626 10628 10629 10631 10632 10634 10635 10637 10639 10640 10641 10642 10643 10645 10647 10649 10651
10576 10576 10577 10578 10578 10579 10579 10580 10580 10580 10580 10580 10580 10580 10580 10580 10580 10580 10580 10580 10581 10581 10581 10581 10582 10582 10583 10583 10584 10584 10585 10586 10586 10587 10588 10588 10590 10591 10593 10594 10596 10597 10598 10599 10601 10602 10603 10605 10606 10608 10609 10610 10611 10613 10614 10616 10618 10619 10621 10622 10624 10625 10627 10628 10630 10632 10633 10634 10635 10637 10638 10640 10642 10644
10570 10570 10571 10572 10572 10573 10573 10574 10574 10574 10574 10574 10575 10575 10575 10575 10575 10575 10575 10575 10575 10575 10576 10576 10577 10577 10578 10578 10578 10579 10579 10580 10581 10581 10582 10583 10583 10584 10586 10587 10589 10590 10591 10592 10594 10595 10596 10598 10599 10600 10602 10603 10604 10606 10607 10609 10610 10612 10613 10615 10616 10618 10619 10621 10622 10624 10626 10627 10629 10630 10631 10632 10635 10637
10563 10564 10564 10565 10565 10566 10567 10567 10568 10568 10568 10568 10569 10569 10569 10569 10569 10569 10569 10569 10569 10569 10569 10570 10571 10571 10572 10573 10573 10573 10573 10574 10575 10575 10576 10577 10578 10579 10579 10581 10582 10583 10584 10585 10586 10588 10589 10590 10591 10593 10594 10595 10597 10598 10600 10601 10603 10604 10605 10607 10608 10610 10612 10613 10615 10616 10618 10620 10622 10623 10623 10625 10627 10629
10556 10557 10557 10558 10558 10559 10559 10560 10560 10560 10561 10561 10562 10562 10563 10563 10563 10563 10563 10563 10562 10563 10563 10563 10564 10564 10565 10566 10567 10567 10567 10568 10568 10569 10569 10570 10571 10572 10573 10574 10575 10576 10577 10578 10579 10580 10581 10582 10584 10585 10586 10587 10589 10591 10592 10593 10595 10596 10597 10599 10600 10602 10604 10605 10607 10608 10610 10612 10614 10615 10616 10617 10619 10621
10549 10549 10550 10551 10551 10551 10552 10552 10552 10552 10553 10553 10554 10555 10555 10556 10556 10556 10556 10556 10556 10556 10556 10557 10557 10557 10558 10558 10559 10560 10561 10561 10562 10562 10562 10563 10563 10564 10565 10566 10567 10568 10569 10570 10571 10573 10574 10575 10576 10577 10578 10579 10581 10582 10584 10585 10586 10587 10589 10590 10592 10593 10595 10597 10598 10600 10601 10603 10605 10606 10608 10609 10611 10613
10541 10542 10543 10543 10544 10544 10544 10544 10544 10544 10544 10545 10546 10547 10547 10548 10548 10549 10549 10549 10549 10550 10549 10550 10550 10550 10550 10550 10551 10552 10553 10553 10554 10555 10555 10556 10556 10557 10557 10558 10558 10559 10560 10561 10563 10564 10566 10567 10568 10569 10570 10571 10572 10574 10575 10577 10578 10579 10580 10582 10583 10585 10586 10588 10589 10591 10592 10594 10595 10597 10599 10601 10603 10604
10534 10535 10535 10536 10536 10537 10537 10537 10537 10537 10537 10537 10538 10538 10539 10540 10541 10541 10541 10542 10542 10542 10542 10542 10543 10543 10543 10542 10543 10544 10544 10545 10546 10546 10547 10548 10549 10549 10550 10550 10551 10551 10552 10552 10553 10555 10556 10558 10559 10560 10562 10562 10564 10565 10567 10568 10569 10570 10572 10573 10575 10576 10577 10579 10580 10582 10583 10585 10586 10588 10590 10592 10594 10595
10527 10527 10528 10529 10530 10529 10529 10530 10530 10530 10530 10530 10530 10531 10532 10532 10533 10533 10534 10535 10535 10535 10535 10535 10535 10535 10535 10535 10535 10536 10536 10537 10537 10538 10539 10540 10540 10541 10542 10543 10543 10544 10544 10544 10545 10546 10548 10549 10550 10551 10553 10553 10555 10557 10558 10559 10559 10561 10563 10564 10566 10567 10569 10570 10572 10573 10574 10575 10577 10579 10580 10582 10584 10586
10519 10520 10520 10521 10522 10522 10522 10522 10523 10523 10523 10523 10524 10524 10525 10525 10526 10527 10527 10528 10528 10528 10528 10527 10527 10527 10527 10527 10528 10528 10528 10528 10528 10529 10530 10531 10532 10532 10533 10534 10534 10535 10535 10535 10536 10538 10540 10541 10542 10543 10544 10544 10545 10547 10549 10549 10550 10551 10553 10555 10556 10558 10559 10561 10562 10563 10565 10566 10568 10569 10571 10573 10575 10576
10512 10513 10513 10514 10515 10515 10515 10516 10516 10516 10517 10517 10518 10518 10518 10519 10519 10520 10520 10520 10520 10520 10520 10520 10519 10520 10520 10520 10520 10519 10519 10519 10519 10520 10521 10522 10523 10523 10524 10525 10526 10527 10527 10526 10526 10529 10531 10532 10533 10534 10535 10536 10536 10538 10539 10540 10540 10542 10543 10545 10546 10547 10549 10551 10552 10553 10555 10556 10558 10560 10561 10563 10565 10567
10505 10507 10508 10508 10508 10509 10509 10509 10510 10511 10511 10511 10511 10511 10511 10511 10511 10511 10512 10512 10512 10512 10511 10511 10511 10512 10512 10512 10511 10510 10510 10510 10511 10512 10512 10513 10514 10514 10514 10515 10517 10518 10519 10517 10517 10519 10521 10523 10523 10524 10525 10526 10526 10528 10529 10530 10531 10532 10533 10534 10535 10537 10538 10540 10541 10543 10544 10546 10548 10550 10552 10553 10555 10557
10498 10499 10501 10502 10503 10503 10503 10503 10503 10504 10506 10505 10505 10504 10503 10503 10503 10502 10502 10502 10502 10502 10502 10502 10502 10503 10503 10502 10502 10503 10502 10502 10502 10503 10503 10504 10504 10504 10505 10505 10506 10508 10510 10509 10508 10508 10511 10513 10513 10513 10514 10515 10516 10517 10518 10519 10520 10522 10523 10524 10525 10526 10527 10529 10531 10532 10534 10536 10537 10539 10541 10543 10544 10546
10489 10489 10491 10493 10495 10496 10496 10496 10496 10497 10498 10498 10497 10496 10495 10494 10494 10493 10492 10492 10492 10492 10492 10492 10493 10493 10493 10493 10493 10493 10493 10493 10493 10493 10494 10494 10495 10495 10495 10495 10495 10496 10499 10500 10498 10497 10499 10502 10504 10503 10503 10505 10505 10505 10507 10508 10510 10511 10512 10513 10513 10514 10516 10518 10520 10522 10524 10525 10527 10529 10530 10532 10533 10535
10479 10479 10480 10481 10483 10485 10486 10487 10487 10488 10488 10488 10487 10486 10485 10485 10484 10484 10483 10483 10483 10483 10482 10483 10483 10483 10483 10483 10483 10483 10484 10484 10484 10483 10483 10484 10485 10486 10485 10484 10484 10484 10487 10489 10489 10486 10485 10490 10493 10492 10492 10494 10494 10493 10494 10497 10500 10501 10502 10502 10502 10503 10505 10506 10508 10510 10512 10514 10516 10517 10519 10521 10522 10524
10470 10471 10471 10471 10471 10472 10474 10475 10476 10477 10477 10477 10477 10477 10476 10476 10475 10475 10475 10474 10474 10473 10473 10473 10473 10473 10472 10473 10473 10473 10473 10474 10474 10474 10474 10474 10475 10475 10474 10473 10472 10472 10473 10475 10477 10476 10473 10475 10481 10482 10479 10481 10482 10482 10482 10484 10488 10490 10490 10491 10491 10492 10493 10495 10496 10498 10500 10502 10504 10506 10508 10509 10511 10512
10461 10462 10463 10463 10464 10464 10464 10465 10465 10466 10466 10467 10467 10467 10467 10467 10467 10467 10466 10466 10465 10465 10465 10464 10464 10463 10463 10462 10463 10463 10463 10463 10464 10464 10464 10464 10464 10464 10463 10461 10459 10459 10459 10460 10462 10465 10461 10460 10466 10469 10466 10465 10468 10469 10469 10471 10475 10478 10478 10478 10479 10481 10482 10483 10484 10486 10487 10490 10492 10494 10495 10497 10498 10500
10452 10453 10454 10454 10455 10456 10456 10456 10456 10456 10457 10457 10457 10458 10458 10458 10458 10458 10458 10457 10457 10456 10456 10455 10454 10454 10453 10452 10452 10452 10452 10452 10452 10452 10452 10451 10451 10452 10451 10449 10447 10445 10445 10444 10446 10451 10451 10447 10451 10454 10452 10451 10453 10454 10455 10458 10462 10464 10466 10466 10467 10468 10469 10471 10472 10474 10475 10477 10480 10482 10483 10484 10486 10487
10444 10445 10445 10446 10446 10447 10447 10447 10447 10447 10447 10447 10447 10448 10448 10448 10448 10448 10448 10447 10447 10446 10445 10444 10443 10443 10442 10442 10441 10441 10440 10440 10440 10440 10439 10438 10437 10438 10438 10436 10434 10431 10430 10428 10428 10434 10438 10436 10435 10438 10437 10437 10438 10439 10440 10443 10447 10450 10452 10453 10454 10455 10456 10458 10460 10461 10463 10465 10467 10469 10470 10472 10473 10475
10437 10436 10437 10437 10437 10437 10437 10437 10437 10436 10436 10437 10437 10437 10437 10437 10438 10438 10437 10436 10436 10435 10434 10433 10432 10432 10431 10431 10430 10429 10429 10428 10427 10427 10426 10425 10424 10424 10423 10422 10420 10418 10416 10413 10411 10417 10422 10422 10421 10422 10423 10423 10424 10423 10424 10427 10431 10434 10437 10438 10439 10440 10442 10443 10446 10448 10450 10452 10454 10456 10458 10459 10460 10462
10429 10429 10429 10429 10429 10428 10427 10427 10427 10427 10426 10426 10426 10426 10427 10427 10427 10427 10426 10425 10424 10424 10423 10422 10421 10421 10420 10419 10418 10417 10416 10416 10415 10414 10413 10412 10411 10411 10409 10407 10406 10404 10402 10398 10396 10400 10405 10406 10405 10406 10409 10411 10411 10409 10409 10411 10413 10417 10420 10422 10423 10425 10426 10428 10431 10434 10436 10438 10440 10443 10445 10446 10448 10449
10421 10421 10421 10421 10420 10419 10418 10418 10418 10418 10417 10416 10416 10415 10415 10415 10415 10415 10414 10413 10413 10412 10411 10411 10410 10409 10408 10406 10405 10404 10403 10402 10401 10400 10399 10398 10396 10396 10394 10392 10391 10390 10387 10384 10382 10384 10387 10389 10390 10390 10393 10397 10398 10396 10394 10396 10397 10400 10403 10405 10407 10409 10410 10412 10416 10419 10422 10424 10426 10429 10431 10433 10435 10436
10412 10412 10411 10411 10410 10410 10409 10408 10408 10408 10407 10407 10406 10404 10404 10403 10403 10402 10402 10401 10401 10400 10399 10399 10398 10396 10395 10394 10392 10391 10390 10389 10388 10386 10384 10382 10381 10380 10378 10377 10376 10374 10372 10369 10369 10370 10372 10373 10374 10375 10376 10380 10383 10383 10381 10381 10382 10384 10386 10388 10390 10392 10394 10396 10400 10403 10407 10410 10412 10414 10417 10420 10422 10423
10401 10401 10401 10401 10401 10400 10399 10398 10398 10398 10397 10396 10395 10394 10393 10392 10392 10392 10392 10391 10390 10389 10388 10388 10386 10384 10383 10382 10380 10379 10378 10376 10374 10373 10370 10368 10366 10364 10363 10362 10361 10360 10357 10355 10355 10357 10358 10359 10360 10361 10363 10365 10368 10369 10370 10369 10368 10369 10371 10373 10374 10375 10377 10380 10384 10387 10390 10394 10397 10400 10403 10406 10408 10410
10390 10389 10390 10390 10390 10390 10389 10388 10388 10388 10387 10385 10384 10383 10383 10382 10382 10382 10382 10381 10380 10379 10378 10376 10374 10373 10371 10370 10369 10368 10366 10364 10361 10359 10357 10354 10352 10351 10349 10348 10348 10346 10344 10343 10343 10344 10347 10348 10348 10349 10351 10352 10353 10355 10356 10356 10355 10355 10356 10358 10359 10360 10361 10365 10370 10373 10375 10378 10382 10386 10388 10390 10393 10395
10379 10379 10380 10380 10380 10380 10379 10378 10378 10377 10376 10375 10374 10373 10373 10373 10373 10373 10372 10372 10371 10369 10367 10365 10363 10362 10361 10360 10358 10357 10354 10351 10348 10346 10343 10341 10339 10338 10337 10336 10334 10333 10333 10333 10334 10334 10335 10337 10337 10337 10338 10339 10340 10340 10340 10341 10342 10341 10342 10344 10345 10345 10346 10350 10355 10358 10360 10363 10367 10370 10373 10375 10377 10379
10370 10370 10370 10370 10370 10370 10369 10368 10368 10367 10366 10365 10365 10364 10365 10365 10364 10363 10362 10361 10360 10358 10356 10355 10353 10351 10350 10349 10347 10345 10342 10338 10336 10333 10331 10328 10326 10325 10325 10324 10323 10322 10323 10324 10325 10325 10325 10324 10323 10323 10324 10324 10325 10325 10325 10326 10327 10327 10327 10328 10329 10329 10330 10333 10338 10342 10345 10347 10350 10353 10357 10360 10363 10365
10361 10361 10361 10361 10360 10360 10360 10359 10358 10357 10356 10356 10356 10356 10356 10356 10355 10354 10352 10350 10349 10348 10346 10344 10342 10341 10340 10338 10336 10334 10331 10327 10324 10322 10319 10317 10315 10314 10314 10313 10312 10311 10312 10313 10314 10315 10314 10312 10310 10310 10310 10310 10310 10310 10311 10312 10313 10312 10312 10313 10315 10316 10316 10317 10321 10326 10329 10332 10334 10338 10341 10344 10347 10350
10352 10352 10352 10351 10351 10351 10350 10350 10349 10348 10347 10347 10347 10348 10348 10347 10345 10344 10342 10340 10338 10337 10335 10333 10332 10331 10329 10328 10325 10323 10320 10316 10313 10310 10309 10308 10307 10305 10304 10303 10301 10300 10300 10301 10303 10303 10303 10301 10300 10299 10299 10299 10298 10298 10298 10299 10300 10300 10300 10301 10304 10305 10305 10305 10308 10312 10315 10318 10321 10323 10325 10327 10330 10333
10342 10341 10341 10341 10341 10340 10340 10340 10339 10339 10338 10338 10339 10339 10338 10337 10335 10333 10331 10330 10328 10326 10324 10323 10322 10320 10319 10318 10316 10313 10309 10305 10301 10300 10300 10300 10300 10298 10296 10293 10292 10290 10289 10289 10291 10293 10292 10292 10291 10290 10289 10288 10288 10287 10288 10288 10289 10290 10291 10292 10294 10295 10295 10295 10298 10300 10302 10305 10307 10308 10310 10311 10314 10318
10331 10331 10330 10331 10330 10330 10330 10330 10329 10329 10329 10329 10329 10329 10328 10326 10325 10323 10321 10319 10317 10316 10314 10313 10312 10311 10310 10308 10306 10302 10298 10294 10292 10292 10293 10293 10292 10289 10287 10285 10284 10282 10280 10280 10282 10283 10282 10282 10281 10280 10279 10279 10278 10278 10278 10278 10279 10280 10281 10282 10283 10284 10285 10286 10287 10288 10289 10292 10294 10295 10296 10298 10300 10303
10320 10320 10321 10321 10320 10320 10320 10320 10320 10320 10320 10320 10320 10319 10317 10316 10314 10313 10311 10309 10307 10306 10305 10304 10304 10303 10302 10299 10296 10292 10288 10286 10285 10286 10286 10284 10282 10280 10278 10277 10276 10275 10273 10272 10273 10273 10272 10272 10272 10271 10271 10270 10270 10270 10271 10271 10270 10270 10272 10273 10273 10274 10275 10277 10278 10278 10279 10281 10282 10283 10284 10286 10288 10291
10311 10311 10311 10311 10310 10310 10310 10310 10311 10311 10311 10311 10310 10309 10307 10306 10304 10303 10301 10300 10299 10297 10297 10296 10296 10295 10294 10291 10286 10282 10280 10280 10280 10279 10278 10275 10273 10272 10270 10269 10268 10268 10266 10265 10265 10265 10264 10264 10264 10264 10263 10263 10263 10264 10265 10265 10263 10262 10263 10265 10265 10265 10266 10267 10268 10268 10270 10271 10273 10273 10273 10274 10277 10280
10301 10302 10302 10301 10301 10301 10301 10301 10302 10302 10302 10301 10300 10299 10298 10297 10295 10293 10292 10291 10290 10290 10289 10289 10288 10287 10285 10282 10277 10275 10274 10275 10273 10271 10269 10267 10266 10264 10263 10262 10261 10261 10260 10259 10258 10257 10257 10257 10257 10256 10255 10256 10256 10257 10259 10259 10258 10256 10255 10255 10256 10257 10257 10258 10259 10260 10261 10262 10263 10264 10264 10265 10267 10269
10290 10291 10291 10290 10291 10291 10292 10292 10293 10293 10292 10291 10290 10289 10289 10288 10286 10285 10283 10282 10282 10282 10282 10281 10280 10279 10276 10273 10270 10269 10270 10269 10266 10263 10262 10260 10258 10257 10256 10256 10255 10254 10254 10253 10252 10251 10250 10251 10251 10250 10249 10249 10250 10251 10252 10253 10253 10250 10246 10245 10248 10251 10251 10251 10251 10252 10252 10253 10254 10255 10256 10257 10258 10259
10278 10278 10279 10280 10281 10282 10282 10283 10284 10283 10282 10282 10281 10280 10279 10278 10277 10276 10276 10275 10275 10275 10274 10274 10273 10271 10268 10266 10264 10264 10263 10261 10259 10257 10255 10254 10252 10251 10250 10249 10248 10248 10248 10247 10245 10244 10244 10244 10245 10244 10243 10243 10243 10245 10246 10247 10247 10243 10238 10238 10242 10245 10245 10244 10245 10245 10245 10246 10246 10247 10248 10249 10249 10250
10266 10266 10268 10269 10271 10272 10273 10273 10273 10273 10273 10272 10272 10271 10270 10269 10269 10269 10269 10269 10268 10268 10267 10266 10265 10264 10261 10260 10259 10257 10256 10254 10253 10251 10249 10248 10247 10246 10244 10244 10243 10242 10242 10241 10240 10239 10239 10239 10239 10238 10238 10238 10238 10238 10240 10241 10240 10236 10233 10234 10237 10239 10238 10238 10239 10239 10239 10240 10240 10240 10241 10242 10242 10242
10255 10256 10258 10259 10260 10261 10262 10263 10263 10263 10263 10263 10263 10262 10262 10261 10261 10261 10262 10262 10262 10262 10261 10259 10258 10257 10256 10255 10253 10251 10249 10248 10246 10245 10244 10243 10242 10240 10239 10238 10238 10237 10237 10236 10235 10234 10234 10233 10233 10233 10233 10232 10232 10232 10233 10234 10233 10231 10230 10230 10231 10232 10232 10233 10233 10233 10233 10233 10234 10234 10235 10236 10236 10236
10246 10248 10249 10250 10251 10252 10253 10254 10254 10254 10254 10254 10254 10254 10254 10254 10254 10255 10255 10255 10255 10255 10254 10253 10252 10251 10251 10249 10247 10245 10244 10242 10241 10240 10240 10239 10237 10236 10234 10233 10232 10232 10231 10231 10230 10230 10230 10229 10229 10228 10228 10227 10227 10227 10228 10228 10228 10227 10227 10227 10226 10226 10227 10227 10227 10227 10227 10228 10228 10229 10230 10230 10230 10230
10238 10239 10240 10241 10243 10244 10245 10245 10245 10246 10246 10246 10247 10247 10247 10247 10248 10248 10249 10249 10248 10248 10247 10246 10246 10246 10245 10244 10241 10240 10239 10238 10236 10236 10235 10234 10233 10232 10230 10229 10228 10227 10226 10226 10225 10225 10225 10225 10225 10224 10224 10223 10223 10223 10223 10223 10223 10223 10223 10223 10222 10222 10223 10222 10221 10222 10222 10223 10224 10224 10224 10224 10224 10224
10231 10232 10233 10235 10236 10236 10237 10237 10238 10238 10239 10239 10240 10240 10240 10240 10241 10242 10242 10243 10243 10242 10241 10240 10240 10240 10239 10238 10236 10234 10234 10233 10232 10231 10230 10229 10228 10228 10226 10225 10224 10223 10222 10222 10222 10221 10221 10221 10221 10220 10220 10219 10219 10219 10219 10219 10219 10219 10219 10219 10218 10218 10218 10217 10217 10217 10218 10219 10219 10219 10219 10219 10219 10219
10223 10225 10227 10228 10228 10228 10229 10230 10230 10231 10232 10232 10233 10234 10234 10234 10235 10236 10236 10237 10237 10236 10235 10235 10235 10234 10233 10232 10231 10230 10229 10229 10228 10227 10226 10225 10224 10223 10223 10222 10221 10220 10219 10219 10218 10218 10218 10218 10217 10217 10216 10216 10216 10215 10215 10215 10215 10215 10215 10215 10214 10214 10214 10213 10213 10214 10214 10215 10215 10215 10214 10214 10214 10214
10217 10219 10220 10220 10221 10222 10222 10223 10224 10224 10225 10226 10227 10228 10229 10229 10229 10230 10231 10231 10231 10230 10229 10229 10230 10229 10228 10227 10226 10225 10225 10225 10224 10223 10222 10222 10221 10220 10219 10219 10218 10217 10216 10216 10215 10215 10215 10214 10214 10213 10213 10213 10212 10212 10212 10212 10211 10211 10211 10211 10210 10210 10210 10210 10210 10210 10211 10211 10211 10210 10210 10210 10210 10210